Find Ten-Koh

NORAD ID: 43677 Int'l Des: 2018-084 Owner: KYUT Country: J operational
LEOCIRCULARRETROGRADE

实时位置

正在加载3D地球...

关于 Ten-Koh

正在加载描述...

即将过境

Passes for default location (London). Set your location on the main map for personalized predictions.

高度历史

Loading altitude history...

两行轨道根数

1 43677U 18084G 26104.40297358 .00002051 00000-0 15867-3 0 9997
2 43677 98.0789 294.0838 0009119 335.7913 24.2881 15.02668168406586
Epoch: Apr 14, 2026 • Age: 23 hours

当前状态

高度 575.5 km
速度 7.58 km/s
星下点 79.43°N, 166.41°W
发射日期 Oct 29, 2018
运行时间 7.4 years
类型 other

技术详情

分类 Payload
质量 22.30 kg
干质量 22.30 kg
总质量 22.30 kg
长度 0.50 m
直径 0.50 m
跨度 0.50 m
形状 Polyhedron
制造商 KYUT
平台类型 Shinen-2
阶段状态 In Orbit
所有者/国家 KYUT/J

Most Searched